Weather History for Veracruz Airport, Mexico

Change the Weather History Date:

Sunday, February 3, 2013

  Actual Average Record
Temperature  
Mean Temperature 70 °F -  
Max Temperature 71 °F 80 °F 87 °F (1997)
Min Temperature 66 °F 63 °F 55 °F (1998)
Cooling Degree Days 4    
Growing Degree Days 20 (Base 50)    
Moisture  
Dew Point 65 °F    
Average Humidity 88    
Maximum Humidity 94    
Minimum Humidity 78    
Precipitation  
Precipitation 0.05 in - - ()
Sea Level Pressure  
Sea Level Pressure 30.14 in    
Wind  
Wind Speed 9 mph ()    
Max Wind Speed 17 mph    
Max Gust Speed -    
Visibility 4.3 miles    
Events Fog , Rain    
Averages and records for this station are not official NWS values.
T = Trace of Precipitation, MM = Missing Value Source: Averaged Metar Reports

Daily Weather History Graph

Daily Weather History Graph

Search for Another Location

Airport:

Trip Planner

Search our weather history database for the weather conditions in past years. The results will help you decide how hot, cold, wet, or windy it might be!

Date:

Astronomy

Feb. 03, 2013 Rise Set
Actual Time 6:58 AM CST 6:19 PM CST
Civil Twilight 6:35 AM CST 6:41 PM CST
Nautical Twilight 6:09 AM CST 7:08 PM CST
Astronomical Twilight 5:43 AM CST 7:34 PM CST
Moon 12:25 AM CST (2/3) 12:01 PM CST (2/3)
Length of Visible Light 12h 06m
Length of Day
11h 20m
Waning Gibbous, 48% of the Moon is Illuminated
Feb 3
Waning Gibbous
Feb 10
New
Feb 17
First Quarter
Feb 25
Full
Mar 4
Last Quarter

Hourly Weather History & Observations

Time (CST) Temp. Dew Point Humidity Pressure Visibility Wind Dir Wind Speed Gust Speed Precip Events Conditions
5:13 AM 69.8 °F 66.2 °F 88% 30.14 in 5.0 mi NNE 15.0 mph - N/A   Overcast
5:45 AM 69.8 °F 66.2 °F 88% 30.11 in 5.0 mi NNE 8.1 mph - N/A Rain Light Rain
6:12 AM 69.8 °F 66.2 °F 88% 30.16 in 5.0 mi North 10.4 mph - N/A   Overcast
6:44 AM 68.0 °F 64.4 °F 88% 30.18 in 5.0 mi NNE 8.1 mph - N/A   Overcast
7:23 AM 68.0 °F 64.4 °F 88% 30.19 in 3.0 mi NNE 16.1 mph - N/A   Overcast
7:45 AM 68.0 °F 64.4 °F 88% 30.19 in 4.0 mi NE 11.5 mph - N/A   Overcast
8:43 AM 68.0 °F 64.4 °F 88% 30.16 in 6.0 mi NNE 10.4 mph - N/A   Overcast
9:43 AM 69.8 °F 66.2 °F 88% 30.22 in 2.0 mi North 12.7 mph - N/A Rain Light Rain
10:43 AM 69.8 °F 64.4 °F 83% 30.22 in 6.0 mi NNE 9.2 mph - N/A   Overcast
11:48 AM 71.6 °F 66.2 °F 83% 30.17 in 7.0 mi NNE 12.7 mph - N/A   Overcast
12:49 PM 71.6 °F 64.4 °F 78% 30.17 in 7.0 mi North 17.3 mph - N/A   Overcast
1:23 PM 69.8 °F 66.2 °F 88% 30.15 in 2.0 mi North 17.3 mph - N/A Rain Light Rain
1:54 PM 68.0 °F 66.2 °F 94% 30.15 in 2.0 mi East 11.5 mph - N/A Rain Light Rain
2:49 PM 68.0 °F 66.2 °F 94% 30.09 in 1.0 mi NNE 11.5 mph - N/A Rain Light Rain
3:02 PM 68.0 °F 66.2 °F 94% 30.12 in 0.5 mi NE 11.5 mph - N/A Rain Light Rain
3:50 PM 68.0 °F 64.4 °F 88% 30.12 in 0.5 mi East 10.4 mph - N/A Fog , Rain Light Rain
4:26 PM 68.0 °F 64.4 °F 88% 30.11 in 2.5 mi ENE 8.1 mph - N/A Rain Light Rain
4:50 PM 68.0 °F 64.4 °F 88% 30.11 in 3.0 mi ENE 10.4 mph - N/A Rain Light Rain
5:19 PM 68.0 °F 66.2 °F 94% 30.11 in 3.0 mi ENE 8.1 mph - N/A   Overcast
5:54 PM 68.0 °F 64.4 °F 88% 30.09 in 5.0 mi ENE 5.8 mph - N/A   Mostly Cloudy
6:46 PM 68.0 °F 64.4 °F 88% 30.11 in 6.0 mi North 4.6 mph - N/A   Mostly Cloudy
7:44 PM 68.0 °F 64.4 °F 88% 30.11 in 7.0 mi Calm Calm - N/A   Mostly Cloudy
8:46 PM 68.0 °F 64.4 °F 88% 30.09 in 7.0 mi Calm Calm - N/A   Mostly Cloudy
9:54 PM 68.0 °F 64.4 °F 88% 30.13 in 7.0 mi NW 5.8 mph - N/A   Mostly Cloudy
10:44 PM 66.2 °F 62.6 °F 88% 30.13 in 7.0 mi Calm Calm - N/A   Mostly Cloudy